Regional Weather Roundup
Issued by NWS

Home | Current Version | Previous Version | Graphics & Text | Print | Product List | Glossary On
Versions: 1 2 3 4 5 6 7 8 9 10 11 12 13 14 15 16 17 18 19 20 21 22 23 24 25 26 27 28 29 30 31 32 33 34 35 36 37 38 39 40 41 42 43 44 45 46 47 48 49 50
000
ASUS45 KCYS 281010
RWRWY

WYOMING REGIONAL WEATHER ROUNDUP
NATIONAL WEATHER SERVICE CHEYENNE WY
400 AM MDT THU APR 28 2016

NOTE:  "FAIR" INDICATES FEW OR NO CLOUDS BELOW 12,000 FEET
WITH NO SIGNIFICANT WEATHER AND/OR OBSTRUCTIONS TO VISIBILITY.

WYZ001-281100-
YELLOWSTONE NATIONAL PARK

CITY           SKY/WX    TMP DP  RH WIND       PRES   REMARKS
LK YELLOWSTONE   N/A     29  21  72 VRB3      29.88S
W YELLOWSTONE  NOT AVBL

$$
WYZ002>013-054>058-071-098>099-281100-
NORTHERN WYOMING

CITY           SKY/WX    TMP DP  RH WIND       PRES   REMARKS
JACKSON        CLOUDY    36  28  75 N8        29.83S WCI  29
CODY           CLOUDY    30  28  93 N6        29.96S WCI  24
GREYBULL       MOCLDY    35  30  82 NW13      29.95S WCI  26
WORLAND        CLOUDY    34  32  92 N3        29.96S
SHERIDAN       CLOUDY    32  31  96 N6        30.00R WCI  26
BUFFALO        LGT SNOW  30  28  92 NW8       29.96S FOG     WCI  22
GILLETTE       CLOUDY    30  29  96 N7        29.96S WCI  23
HULETT         CLOUDY    32  32 100 N3        29.97S FOG
NEWCASTLE      CLOUDY    32  28  86 N8        29.95R WCI  25

$$
WYZ014>020-022>026-101>103-281100-
CENTRAL WYOMING

CITY           SKY/WX    TMP DP  RH WIND       PRES   REMARKS
BIG PINEY      CLOUDY    32  28  85 SW5       29.86S WCI  27
PINEDALE       FLURRIES  32  30  93 NW5       29.86S WCI  27
DUBOIS         LGT SNOW  28  28 100 E12       29.87S WCI  18
LANDER         CLOUDY    34  30  85 SE6       29.91S WCI  29
RIVERTON       CLOUDY    34  29  82 NE12      29.92S WCI  25
CASPER         CLOUDY    31  27  85 NE5       29.94R WCI  26
DOUGLAS        CLOUDY    32  29  88 N8        29.94S WCI  25

$$
WYZ021-027>030-104>119-281100-
SOUTHERN WYOMING

CITY           SKY/WX    TMP DP  RH WIND       PRES   REMARKS
EVANSTON       CLOUDY    33  27  78 E21G28    29.75S WCI  21
FORT BRIDGER   CLOUDY    32  32 100 NE10      29.82S WCI  24
ROCK SPRINGS   FAIR      31  26  82 NE16      29.84S WCI  20
DIXON          FAIR      33  28  82 E9        29.84S WCI  25
RAWLINS        FAIR      26  22  84 NE7       29.89F WCI  18
SARATOGA       CLOUDY    30  28  93 W10       29.88S WCI  21
LARAMIE        CLOUDY    26  24  92 E5        29.89S WCI  20
CHEYENNE       CLOUDY    30  27  88 N3        29.91S
TORRINGTON     FAIR      32  28  85 N5        29.93R WCI  27
PINE BLUFFS    PTSUNNY   30  30 100 NW7       29.93S WCI  23

$$



USA.gov is the U.S. government's official web portal to all federal, state and local government web resources and services.